Location: Little Eden Observatory
(34.6167°N, 93.7833°W)
Time: 10:29:27
(UTC-05:00)

Envisat - Visible Passes

Search period start: 22 June 2018 00:00
Search period end: 02 July 2018 00:00
Orbit: 764 x 766 km, 98.2° (Epoch: 22 June)

Date Brightness Start Highest point End Pass type
(mag) Time Alt. Az. Time Alt. Az. Time Alt. Az.
23 Jun 5.6 21:49:36 10° SW 21:52:36 16° W 21:55:36 10° WNW visible
24 Jun 4.5 21:10:58 10° SSW 21:15:38 37° W 21:20:20 10° NNW visible
26 Jun 5.4 21:37:39 10° SW 21:41:21 20° W 21:45:04 10° NW visible
27 Jun 4.0 20:59:34 10° S 21:04:27 48° W 21:09:21 10° NNW visible
28 Jun 5.9 22:06:18 10° W 22:07:09 10° W 22:08:01 10° W visible
29 Jun 5.0 21:25:55 10° SSW 21:30:07 26° W 21:34:21 10° NW visible
01 Jul 5.7 21:53:17 10° WSW 21:55:53 14° W 21:58:30 10° WNW visible
